BEIDOU-3 G3

Last updated on Oct. 30, 2020, 5:57 a.m. UTC

1 45807U 20040A   20303.90966233 -.00000356  00000-0  00000-0 0  9991
2 45807   2.8175 298.5960 0007295 355.2851 182.8860  1.00272390  1457
UTC
Height (km)
Latitude
Longitude
Inclination
Orbital Period
UTC large
Height (km)
Speed (km/s)
/
Latitude / Longitude
Inclination (degrees)
Orbital Period (minutes)
Azimuth
Elevation
Range (km)
Doppler Factor
iOS Compass Heading
iOS Angle

Next 30 passes for location: Hong Kong

Rise time Rise Azimuth (degrees) Set time Set Azimuth (degrees) Duration Max altitude (degrees)

No matching passes for this satellites